| time (UTC) | temp F | wind direction | speed knots | gust knots | rain 1hr in | rain 24hr in | rain mn in | humidity % | barometer mb |
| 20260831200545 | 64 | 30 | 2.6 | 6.1 | 0.00 | 0.32 | 0.06 | 81 | 1026.4 |
| 20260831200052 | 63 | 80 | 1.7 | 7.8 | 0.00 | 0.32 | 0.06 | 83 | 1026.2 |
| 20260831195604 | 63 | 32 | 4.3 | 9.6 | 0.00 | 0.32 | 0.06 | 82 | 1026.0 |
| 20260831195004 | 63 | 24 | 4.3 | 8.7 | 0.00 | 0.32 | 0.06 | 83 | 1026.0 |
| 20260831194604 | 63 | 13 | 4.3 | 8.7 | 0.00 | 0.32 | 0.06 | 83 | 1026.2 |
| 20260831194002 | 63 | 346 | 4.3 | 10.4 | 0.00 | 0.32 | 0.06 | 84 | 1026.3 |
| 20260831193600 | 63 | 360 | 4.3 | 10.4 | 0.00 | 0.32 | 0.06 | 85 | 1026.5 |
| 20260831193004 | 63 | 333 | 6.1 | 10.4 | 0.00 | 0.32 | 0.06 | 84 | 1026.5 |
| 20260831192601 | 62 | 320 | 6.1 | 12.2 | 0.00 | 0.32 | 0.06 | 84 | 1026.7 |
| 20260831192004 | 62 | 341 | 7.0 | 12.2 | 0.02 | 0.32 | 0.06 | 86 | 1026.8 |
| 20260831191511 | 62 | 328 | 6.1 | 10.4 | 0.03 | 0.32 | 0.06 | 87 | 1026.9 |
| 20260831191107 | 62 | 295 | 7.8 | 10.4 | 0.03 | 0.32 | 0.06 | 87 | 1026.9 |
| 20260831190508 | 62 | 317 | 7.0 | 9.6 | 0.04 | 0.32 | 0.06 | 88 | 1027.2 |
| 20260831190104 | 62 | 265 | 4.3 | 8.7 | 0.04 | 0.32 | 0.06 | 89 | 1027.2 |
| 20260831185553 | 62 | 302 | 5.2 | 8.7 | 0.04 | 0.32 | 0.06 | 89 | 1027.2 |
| 20260831185101 | 62 | 267 | 2.6 | 7.8 | 0.04 | 0.32 | 0.06 | 88 | 1027.2 |
| 20260831184552 | 62 | 271 | 1.7 | 7.8 | 0.04 | 0.32 | 0.06 | 88 | 1027.2 |
| 20260831184044 | 61 | 272 | 2.6 | 7.8 | 0.04 | 0.32 | 0.06 | 88 | 1027.2 |
| 20260831183549 | 62 | 273 | 4.3 | 11.3 | 0.04 | 0.32 | 0.06 | 89 | 1027.0 |
| 20260831183100 | 62 | 299 | 5.2 | 11.3 | 0.04 | 0.32 | 0.06 | 88 | 1027.0 |
| 20260831182606 | 62 | 276 | 6.1 | 12.2 | 0.04 | 0.32 | 0.06 | 87 | 1026.9 |
| 20260831182056 | 62 | 306 | 8.7 | 11.3 | 0.04 | 0.31 | 0.05 | 84 | 1026.5 |
| 20260831181605 | 63 | 283 | 4.3 | 7.0 | 0.02 | 0.28 | 0.03 | 82 | 1027.6 |
| 20260831181055 | 63 | 254 | 1.7 | 5.2 | 0.02 | 0.28 | 0.03 | 82 | 1028.0 |
| 20260831180605 | 64 | 206 | 0.9 | 5.2 | 0.02 | 0.28 | 0.03 | 80 | 1028.0 |
| 20260831180044 | 64 | 227 | 0.9 | 3.5 | 0.01 | 0.28 | 0.02 | 80 | 1028.0 |
| 20260831175534 | 64 | 205 | 1.7 | 3.5 | 0.01 | 0.28 | 0.02 | 80 | 1027.9 |
| 20260831175042 | 64 | 230 | 0.9 | 4.3 | 0.01 | 0.28 | 0.02 | 80 | 1027.9 |
| 20260831174549 | 64 | 228 | 0.9 | 6.1 | 0.01 | 0.28 | 0.02 | 79 | 1027.8 |
| 20260831174057 | 64 | 226 | 1.7 | 6.1 | 0.01 | 0.28 | 0.02 | 76 | 1027.8 |
| 20260831173550 | 64 | 242 | 0.9 | 7.0 | 0.01 | 0.28 | 0.02 | 77 | 1027.7 |
| 20260831173059 | 65 | 254 | 2.6 | 7.0 | 0.01 | 0.28 | 0.02 | 74 | 1027.7 |
| 20260831172550 | 66 | 263 | 1.7 | 4.3 | 0.01 | 0.28 | 0.02 | 74 | 1027.6 |
| 20260831172058 | 66 | 273 | 1.7 | 6.1 | 0.00 | 0.27 | 0.01 | 72 | 1027.5 |
| 20260831171501 | 67 | 294 | 2.6 | 5.2 | 0.00 | 0.27 | 0.01 | 69 | 1027.4 |
| 20260831171056 | 67 | 305 | 1.7 | 5.2 | 0.00 | 0.27 | 0.01 | 66 | 1027.4 |
| 20260831170604 | 67 | 315 | 3.5 | 7.8 | 0.00 | 0.27 | 0.01 | 66 | 1027.3 |
| 20260831170058 | 67 | 327 | 4.3 | 7.8 | 0.00 | 0.27 | 0.01 | 66 | 1027.3 |
| 20260831165545 | 67 | 351 | 2.6 | 7.0 | 0.00 | 0.27 | 0.01 | 67 | 1027.2 |
| 20260831165055 | 67 | 324 | 3.5 | 7.0 | 0.00 | 0.27 | 0.01 | 66 | 1027.1 |
| 20260831164546 | 66 | 306 | 3.5 | 7.8 | 0.00 | 0.27 | 0.01 | 66 | 1027.0 |
| 20260831164054 | 66 | 319 | 3.5 | 7.8 | 0.00 | 0.27 | 0.01 | 67 | 1027.0 |
| 20260831163603 | 66 | 319 | 4.3 | 8.7 | 0.00 | 0.27 | 0.01 | 66 | 1026.9 |
| 20260831163005 | 66 | 318 | 5.2 | 8.7 | 0.00 | 0.27 | 0.01 | 67 | 1026.9 |
| 20260831162601 | 66 | 295 | 5.2 | 8.7 | 0.00 | 0.27 | 0.01 | 66 | 1026.8 |
| 20260831162003 | 66 | 328 | 5.2 | 8.7 | 0.00 | 0.27 | 0.01 | 67 | 1026.7 |
| 20260831161608 | 65 | 313 | 4.3 | 10.4 | 0.00 | 0.27 | 0.01 | 68 | 1026.6 |
| 20260831161050 | 65 | 317 | 7.0 | 10.4 | 0.00 | 0.27 | 0.01 | 68 | 1026.4 |
| 20260831160558 | 65 | 317 | 5.2 | 10.4 | 0.00 | 0.27 | 0.01 | 69 | 1026.3 |
| 20260831160056 | 65 | 329 | 5.2 | 11.3 | 0.00 | 0.27 | 0.01 | 69 | 1026.3 |
| 20260831155559 | 65 | 338 | 6.1 | 8.7 | 0.00 | 0.27 | 0.01 | 70 | 1026.2 |
| 20260831155052 | 64 | 303 | 4.3 | 9.6 | 0.00 | 0.27 | 0.01 | 71 | 1026.2 |
| 20260831154553 | 64 | 319 | 6.1 | 9.6 | 0.00 | 0.27 | 0.01 | 71 | 1026.2 |
| 20260831154052 | 64 | 321 | 5.2 | 9.6 | 0.00 | 0.27 | 0.01 | 72 | 1026.2 |
| 20260831153603 | 64 | 322 | 5.2 | 9.6 | 0.00 | 0.27 | 0.01 | 72 | 1026.3 |
| 20260831153004 | 64 | 338 | 3.5 | 8.7 | 0.00 | 0.27 | 0.01 | 73 | 1026.3 |
| 20260831152601 | 64 | 309 | 5.2 | 8.7 | 0.00 | 0.27 | 0.01 | 73 | 1026.4 |
| 20260831152003 | 64 | 341 | 4.3 | 7.0 | 0.00 | 0.27 | 0.01 | 73 | 1026.5 |
| 20260831151608 | 64 | 315 | 4.3 | 7.0 | 0.00 | 0.27 | 0.01 | 74 | 1026.5 |
| 20260831151053 | 63 | 310 | 2.6 | 8.7 | 0.00 | 0.27 | 0.01 | 75 | 1026.6 |
| 20260831150559 | 63 | 304 | 4.3 | 9.6 | 0.00 | 0.27 | 0.01 | 75 | 1026.6 |
| 20260831150055 | 63 | 297 | 4.3 | 10.4 | 0.00 | 0.27 | 0.01 | 75 | 1026.6 |
| 20260831145559 | 63 | 263 | 6.1 | 11.3 | 0.00 | 0.27 | 0.01 | 75 | 1026.5 |
| 20260831145002 | 64 | 284 | 7.0 | 11.3 | 0.00 | 0.27 | 0.01 | 73 | 1026.4 |
| 20260831144511 | 65 | 294 | 3.5 | 8.7 | 0.00 | 0.27 | 0.01 | 71 | 1026.5 |
| 20260831144017 | 65 | 304 | 2.6 | 6.1 | 0.00 | 0.27 | 0.01 | 71 | 1026.5 |
| 20260831143526 | 64 | 261 | 2.6 | 5.2 | 0.00 | 0.27 | 0.01 | 72 | 1026.4 |
| 20260831143032 | 64 | 265 | 0.9 | 2.6 | 0.00 | 0.27 | 0.01 | 71 | 1026.2 |
| 20260831142541 | 64 | 120 | 0.0 | 6.1 | 0.00 | 0.27 | 0.01 | 71 | 1026.0 |
| 20260831142049 | 64 | 83 | 1.7 | 7.0 | 0.00 | 0.27 | 0.01 | 72 | 1025.7 |
| 20260831141603 | 63 | 80 | 3.5 | 7.0 | 0.00 | 0.27 | 0.01 | 72 | 1025.5 |
| 20260831141107 | 63 | 115 | 2.6 | 7.8 | 0.00 | 0.27 | 0.01 | 72 | 1025.6 |
| 20260831140506 | 63 | 98 | 2.6 | 8.7 | 0.00 | 0.27 | 0.01 | 74 | 1025.4 |
| 20260831140010 | 62 | 118 | 4.3 | 8.7 | 0.00 | 0.27 | 0.01 | 73 | 1025.3 |
| 20260831135605 | 62 | 76 | 6.1 | 9.6 | 0.00 | 0.27 | 0.01 | 74 | 1025.2 |
| 20260831135054 | 62 | 78 | 5.2 | 9.6 | 0.00 | 0.27 | 0.01 | 74 | 1025.2 |
| 20260831134603 | 62 | 107 | 5.2 | 10.4 | 0.00 | 0.27 | 0.01 | 74 | 1025.1 |
| 20260831134053 | 62 | 69 | 5.2 | 10.4 | 0.00 | 0.27 | 0.01 | 75 | 1024.8 |
| 20260831133602 | 61 | 138 | 3.5 | 9.6 | 0.00 | 0.27 | 0.01 | 75 | 1024.9 |
| 20260831133004 | 61 | 69 | 4.3 | 8.7 | 0.00 | 0.27 | 0.01 | 76 | 1024.7 |
| 20260831132559 | 61 | 107 | 4.3 | 8.7 | 0.00 | 0.27 | 0.01 | 76 | 1024.7 |
| 20260831132002 | 60 | 93 | 4.3 | 9.6 | 0.00 | 0.27 | 0.01 | 77 | 1024.6 |
| 20260831131617 | 60 | 109 | 4.3 | 9.6 | 0.00 | 0.27 | 0.01 | 77 | 1024.6 |
| 20260831131003 | 60 | 88 | 2.6 | 6.1 | 0.00 | 0.27 | 0.01 | 78 | 1024.5 |
| 20260831130601 | 60 | 89 | 1.7 | 5.2 | 0.00 | 0.27 | 0.01 | 78 | 1024.6 |
| 20260831130053 | 60 | 117 | 2.6 | 7.0 | 0.00 | 0.27 | 0.01 | 78 | 1024.5 |
| 20260831125558 | 60 | 94 | 1.7 | 7.0 | 0.00 | 0.27 | 0.01 | 77 | 1024.4 |
| 20260831125050 | 60 | 76 | 3.5 | 7.0 | 0.00 | 0.27 | 0.01 | 77 | 1024.3 |
| 20260831124539 | 60 | 73 | 2.6 | 7.0 | 0.00 | 0.27 | 0.01 | 77 | 1024.2 |
| 20260831124048 | 60 | 107 | 2.6 | 11.3 | 0.00 | 0.27 | 0.01 | 77 | 1024.2 |
| 20260831123556 | 61 | 84 | 4.3 | 11.3 | 0.00 | 0.27 | 0.01 | 77 | 1024.2 |
| 20260831123100 | 61 | 126 | 6.1 | 10.4 | 0.00 | 0.27 | 0.01 | 76 | 1024.1 |
| 20260831122552 | 61 | 99 | 5.2 | 9.6 | 0.00 | 0.27 | 0.01 | 76 | 1024.2 |
| 20260831122100 | 61 | 130 | 5.2 | 8.7 | 0.00 | 0.27 | 0.01 | 75 | 1024.4 |
| 20260831121602 | 61 | 147 | 2.6 | 5.2 | 0.00 | 0.27 | 0.01 | 74 | 1024.4 |
| 20260831121044 | 61 | 71 | 0.9 | 7.8 | 0.00 | 0.27 | 0.01 | 74 | 1024.5 |
| 20260831120551 | 62 | 36 | 2.6 | 8.7 | 0.00 | 0.27 | 0.01 | 73 | 1024.5 |
| 20260831120100 | 62 | 51 | 2.6 | 10.4 | 0.00 | 0.27 | 0.01 | 73 | 1024.5 |
| 20260831115502 | 62 | 53 | 4.3 | 10.4 | 0.00 | 0.27 | 0.01 | 73 | 1024.2 |
| 20260831115057 | 62 | 65 | 5.2 | 10.4 | 0.00 | 0.27 | 0.01 | 72 | 1024.2 |
| 20260831114605 | 62 | 50 | 4.3 | 8.7 | 0.00 | 0.27 | 0.01 | 73 | 1024.0 |
| 20260831114058 | 62 | 108 | 4.3 | 8.7 | 0.00 | 0.27 | 0.01 | 72 | 1024.0 |
| 20260831113501 | 62 | 82 | 3.5 | 7.8 | 0.00 | 0.27 | 0.01 | 72 | 1023.9 |
| 20260831113059 | 62 | 59 | 3.5 | 7.0 | 0.00 | 0.27 | 0.01 | 71 | 1023.9 |
| 20260831112555 | 62 | 64 | 3.5 | 9.6 | 0.00 | 0.27 | 0.01 | 71 | 1023.9 |
| 20260831112040 | 62 | 82 | 4.3 | 13.0 | 0.00 | 0.27 | 0.01 | 71 | 1023.8 |
| 20260831111555 | 62 | 63 | 7.0 | 17.4 | 0.00 | 0.27 | 0.01 | 70 | 1023.6 |
| 20260831111043 | 62 | 57 | 10.4 | 19.1 | 0.00 | 0.27 | 0.01 | 70 | 1023.5 |
| 20260831110549 | 62 | 61 | 11.3 | 19.1 | 0.00 | 0.27 | 0.01 | 70 | 1023.3 |
| 20260831105501 | 62 | 46 | 11.3 | 16.5 | 0.00 | 0.27 | 0.01 | 71 | 1023.7 |
| 20260831105058 | 62 | 53 | 10.4 | 15.6 | 0.00 | 0.27 | 0.01 | 71 | 1023.8 |
| 20260831104604 | 62 | 46 | 9.6 | 17.4 | 0.00 | 0.27 | 0.01 | 71 | 1023.9 |
| 20260831104056 | 62 | 41 | 10.4 | 17.4 | 0.00 | 0.27 | 0.01 | 71 | 1023.9 |
| 20260831103600 | 62 | 56 | 8.7 | 13.0 | 0.00 | 0.27 | 0.01 | 75 | 1024.5 |
| 20260831103004 | 62 | 54 | 6.1 | 8.7 | 0.00 | 0.27 | 0.01 | 76 | 1024.8 |
| 20260831102559 | 62 | 80 | 4.3 | 8.7 | 0.00 | 0.27 | 0.01 | 76 | 1025.0 |
| 20260831102003 | 62 | 45 | 2.6 | 5.2 | 0.00 | 0.27 | 0.01 | 77 | 1025.1 |
| 20260831101602 | 62 | 37 | 2.6 | 4.3 | 0.00 | 0.27 | 0.01 | 78 | 1025.1 |
| 20260831101002 | 62 | 31 | 2.6 | 4.3 | 0.00 | 0.27 | 0.01 | 79 | 1025.2 |
| 20260831100508 | 63 | 9 | 0.9 | 1.7 | 0.00 | 0.27 | 0.01 | 78 | 1025.4 |
| 20260831100037 | 63 | 9 | 0.0 | 1.7 | 0.00 | 0.27 | 0.01 | 78 | 1025.4 |
| 20260831095546 | 63 | 84 | 0.9 | 2.6 | 0.00 | 0.27 | 0.01 | 77 | 1025.4 |
| 20260831095056 | 63 | 145 | 0.9 | 2.6 | 0.00 | 0.27 | 0.01 | 76 | 1025.5 |
| 20260831094601 | 64 | 150 | 1.7 | 2.6 | 0.00 | 0.27 | 0.01 | 73 | 1025.4 |
| 20260831094001 | 64 | 164 | 0.0 | 4.3 | 0.00 | 0.27 | 0.01 | 72 | 1025.5 |
| 20260831093558 | 64 | 164 | 1.7 | 4.3 | 0.00 | 0.27 | 0.01 | 70 | 1025.5 |
| 20260831093105 | 64 | 128 | 0.9 | 4.3 | 0.00 | 0.27 | 0.01 | 67 | 1025.5 |
| 20260831092601 | 64 | 69 | 0.9 | 4.3 | 0.01 | 0.27 | 0.01 | 66 | 1025.4 |
| 20260831092106 | 64 | 41 | 1.7 | 4.3 | 0.01 | 0.27 | 0.01 | 68 | 1025.5 |
| 20260831091512 | 64 | 59 | 1.7 | 7.0 | 0.01 | 0.27 | 0.01 | 67 | 1025.4 |
| 20260831091016 | 63 | 58 | 3.5 | 5.2 | 0.01 | 0.27 | 0.01 | 67 | 1025.4 |
| 20260831090524 | 63 | 44 | 2.6 | 7.8 | 0.01 | 0.27 | 0.01 | 68 | 1025.5 |
| 20260831090032 | 63 | 55 | 3.5 | 7.8 | 0.01 | 0.27 | 0.01 | 70 | 1025.5 |
| 20260831085543 | 62 | 40 | 4.3 | 7.8 | 0.01 | 0.27 | 0.01 | 72 | 1025.4 |
| 20260831085031 | 62 | 63 | 3.5 | 7.8 | 0.01 | 0.27 | 0.01 | 73 | 1025.5 |
| 20260831084539 | 62 | 61 | 2.6 | 7.8 | 0.01 | 0.27 | 0.01 | 75 | 1025.5 |
| 20260831084048 | 62 | 36 | 4.3 | 9.6 | 0.01 | 0.27 | 0.01 | 77 | 1025.4 |
| 20260831083556 | 62 | 17 | 5.2 | 10.4 | 0.01 | 0.27 | 0.01 | 78 | 1025.4 |
| 20260831083053 | 63 | 9 | 3.5 | 11.3 | 0.01 | 0.27 | 0.01 | 76 | 1025.4 |
| 20260831082555 | 63 | 360 | 4.3 | 9.6 | 0.00 | 0.26 | 0.00 | 74 | 1025.6 |
| 20260831082048 | 63 | 355 | 2.6 | 8.7 | 0.00 | 0.26 | 0.00 | 74 | 1025.7 |
| 20260831081556 | 63 | 23 | 4.3 | 8.7 | 0.00 | 0.26 | 0.00 | 75 | 1025.6 |
| 20260831081046 | 63 | 347 | 3.5 | 7.8 | 0.00 | 0.26 | 0.00 | 76 | 1025.8 |
| 20260831080537 | 64 | 5 | 2.6 | 4.3 | 0.00 | 0.26 | 0.00 | 75 | 1025.6 |
| 20260831080045 | 64 | 26 | 1.7 | 4.3 | 0.00 | 0.26 | 0.00 | 74 | 1025.4 |
| 20260831075541 | 64 | 56 | 1.7 | 7.8 | 0.00 | 0.26 | 0.00 | 74 | 1025.3 |
| 20260831075046 | 64 | 68 | 3.5 | 7.8 | 0.00 | 0.26 | 0.00 | 74 | 1025.1 |
| 20260831074554 | 64 | 76 | 3.5 | 6.1 | 0.00 | 0.26 | 0.00 | 73 | 1025.1 |
| 20260831074104 | 64 | 77 | 2.6 | 7.0 | 0.00 | 0.26 | 0.00 | 74 | 1025.1 |
| 20260831073555 | 64 | 60 | 2.6 | 5.2 | 0.00 | 0.26 | 0.00 | 73 | 1025.1 |
| 20260831073103 | 64 | 82 | 2.6 | 7.8 | 0.00 | 0.26 | 0.00 | 73 | 1025.1 |
| 20260831072557 | 64 | 82 | 4.3 | 9.6 | 0.00 | 0.26 | 0.00 | 73 | 1025.1 |
| 20260831072048 | 64 | 82 | 4.3 | 9.6 | 0.00 | 0.26 | 0.00 | 72 | 1025.0 |
| 20260831071556 | 63 | 91 | 3.5 | 7.0 | 0.00 | 0.26 | 0.00 | 71 | 1025.1 |
| 20260831071053 | 63 | 80 | 2.6 | 10.4 | 0.00 | 0.26 | 0.00 | 71 | 1025.2 |
| 20260831070557 | 63 | 96 | 2.6 | 10.4 | 0.00 | 0.26 | 0.00 | 70 | 1025.0 |
| 20260831070050 | 63 | 117 | 5.2 | 9.6 | 0.00 | 0.26 | 0.00 | 70 | 1024.8 |
| 20260831065540 | 63 | 98 | 2.6 | 7.0 | 0.00 | 0.26 | 0.00 | 71 | 1024.8 |
| 20260831065049 | 63 | 105 | 3.5 | 7.0 | 0.00 | 0.26 | 0.00 | 71 | 1024.7 |
| 20260831064542 | 63 | 103 | 1.7 | 5.2 | 0.00 | 0.26 | 0.00 | 71 | 1024.7 |
| 20260831064051 | 63 | 111 | 1.7 | 3.5 | 0.00 | 0.26 | 0.00 | 71 | 1024.7 |
| 20260831063557 | 63 | 131 | 0.9 | 2.6 | 0.00 | 0.26 | 0.00 | 69 | 1024.6 |
| 20260831063000 | 63 | 104 | 0.9 | 3.5 | 0.00 | 0.26 | 0.00 | 69 | 1024.5 |
| 20260831062558 | 63 | 101 | 1.7 | 3.5 | 0.00 | 0.26 | 0.00 | 68 | 1024.2 |
| 20260831062001 | 63 | 38 | 0.9 | 3.5 | 0.00 | 0.26 | 0.00 | 69 | 1024.0 |
| 20260831061558 | 63 | 9 | 0.9 | 3.5 | 0.00 | 0.26 | 0.00 | 70 | 1023.9 |
| 20260831061003 | 64 | 5 | 0.0 | 1.7 | 0.00 | 0.26 | 0.00 | 72 | 1023.9 |
| 20260831060507 | 64 | 9 | 0.0 | 2.6 | 0.00 | 0.26 | 0.00 | 73 | 1024.0 |
| 20260831060001 | 64 | 5 | 0.9 | 2.6 | 0.00 | 0.26 | 0.00 | 72 | 1023.9 |
| 20260831055509 | 64 | 71 | 0.0 | 2.6 | 0.00 | 0.26 | 0.26 | 72 | 1024.0 |
| 20260831055104 | 64 | 102 | 0.9 | 2.6 | 0.00 | 0.26 | 0.26 | 71 | 1024.0 |
| 20260831054509 | 64 | 125 | 0.9 | 5.2 | 0.00 | 0.26 | 0.26 | 70 | 1024.1 |
| 20260831054103 | 65 | 106 | 1.7 | 6.1 | 0.00 | 0.26 | 0.26 | 69 | 1024.1 |
| 20260831053558 | 65 | 101 | 2.6 | 6.1 | 0.00 | 0.26 | 0.26 | 67 | 1024.0 |
| 20260831053105 | 65 | 49 | 3.5 | 8.7 | 0.00 | 0.26 | 0.26 | 67 | 1023.9 |
| 20260831052557 | 65 | 67 | 4.3 | 9.6 | 0.00 | 0.26 | 0.26 | 67 | 1023.9 |
| 20260831052046 | 65 | 63 | 4.3 | 10.4 | 0.00 | 0.26 | 0.26 | 67 | 1023.9 |
| 20260831051554 | 65 | 47 | 4.3 | 10.4 | 0.00 | 0.26 | 0.26 | 67 | 1023.9 |
| 20260831051103 | 65 | 50 | 5.2 | 10.4 | 0.00 | 0.26 | 0.26 | 68 | 1023.9 |
| 20260831050504 | 66 | 77 | 5.2 | 10.4 | 0.00 | 0.26 | 0.26 | 67 | 1023.9 |
| 20260831050101 | 66 | 87 | 6.1 | 13.0 | 0.00 | 0.26 | 0.26 | 66 | 1023.9 |
| 20260831045504 | 66 | 71 | 5.2 | 15.6 | 0.00 | 0.26 | 0.26 | 67 | 1023.9 |
| 20260831045101 | 66 | 30 | 6.1 | 16.5 | 0.00 | 0.26 | 0.26 | 66 | 1023.8 |
| 20260831044504 | 66 | 47 | 8.7 | 13.9 | 0.00 | 0.26 | 0.26 | 66 | 1023.8 |
| 20260831044101 | 66 | 46 | 6.1 | 13.9 | 0.00 | 0.26 | 0.26 | 67 | 1023.7 |
| 20260831043504 | 66 | 41 | 8.7 | 16.5 | 0.00 | 0.26 | 0.26 | 66 | 1023.8 |
| 20260831043101 | 66 | 69 | 10.4 | 20.0 | 0.00 | 0.26 | 0.26 | 66 | 1023.8 |
| 20260831042503 | 66 | 20 | 11.3 | 16.5 | 0.00 | 0.26 | 0.26 | 67 | 1023.9 |
| 20260831042011 | 66 | 65 | 9.6 | 16.5 | 0.00 | 0.26 | 0.26 | 68 | 1023.9 |
| 20260831041615 | 65 | 63 | 9.6 | 16.5 | 0.00 | 0.26 | 0.26 | 68 | 1024.0 |
| 20260831041008 | 65 | 65 | 9.6 | 15.6 | 0.00 | 0.26 | 0.26 | 71 | 1023.9 |
| 20260831040515 | 65 | 55 | 6.1 | 11.3 | 0.00 | 0.26 | 0.26 | 74 | 1024.0 |
| 20260831040035 | 65 | 80 | 4.3 | 8.7 | 0.00 | 0.26 | 0.26 | 74 | 1024.1 |
| 20260831035530 | 65 | 63 | 3.5 | 7.0 | 0.00 | 0.26 | 0.26 | 74 | 1024.2 |
| 20260831035039 | 65 | 98 | 3.5 | 7.0 | 0.00 | 0.26 | 0.26 | 74 | 1024.3 |
| 20260831034549 | 65 | 86 | 3.5 | 6.1 | 0.00 | 0.26 | 0.26 | 73 | 1024.6 |
| 20260831034055 | 65 | 128 | 1.7 | 5.2 | 0.00 | 0.26 | 0.26 | 73 | 1024.7 |
| 20260831033606 | 65 | 96 | 1.7 | 7.0 | 0.00 | 0.26 | 0.26 | 72 | 1024.6 |
| 20260831033006 | 65 | 86 | 2.6 | 8.7 | 0.00 | 0.26 | 0.26 | 72 | 1024.6 |
| 20260831032604 | 65 | 71 | 4.3 | 8.7 | 0.00 | 0.26 | 0.26 | 71 | 1024.5 |
| 20260831032006 | 65 | 78 | 3.5 | 8.7 | 0.00 | 0.26 | 0.26 | 74 | 1024.3 |
| 20260831031606 | 65 | 70 | 5.2 | 8.7 | 0.00 | 0.26 | 0.26 | 74 | 1024.3 |
| 20260831031054 | 65 | 80 | 4.3 | 9.6 | 0.00 | 0.26 | 0.26 | 73 | 1024.3 |
| 20260831030601 | 65 | 88 | 3.5 | 14.8 | 0.00 | 0.26 | 0.26 | 74 | 1024.2 |
| 20260831030054 | 65 | 62 | 7.0 | 17.4 | 0.00 | 0.26 | 0.26 | 73 | 1024.2 |
| 20260831025542 | 65 | 40 | 9.6 | 17.4 | 0.00 | 0.26 | 0.26 | 73 | 1024.0 |
| 20260831025050 | 65 | 17 | 7.8 | 13.0 | 0.00 | 0.26 | 0.26 | 73 | 1024.0 |
| 20260831024559 | 66 | 23 | 7.8 | 12.2 | 0.00 | 0.26 | 0.26 | 72 | 1023.9 |
| 20260831024001 | 66 | 27 | 2.6 | 9.6 | 0.00 | 0.26 | 0.26 | 73 | 1024.0 |
| 20260831023555 | 67 | 355 | 3.5 | 11.3 | 0.00 | 0.26 | 0.26 | 73 | 1023.8 |
| 20260831023104 | 67 | 346 | 7.8 | 11.3 | 0.00 | 0.26 | 0.26 | 73 | 1023.8 |
| 20260831022556 | 67 | 5 | 3.5 | 7.0 | 0.00 | 0.26 | 0.26 | 73 | 1023.4 |
| 20260831022105 | 67 | 19 | 2.6 | 6.1 | 0.00 | 0.26 | 0.26 | 76 | 1023.4 |
| 20260831021556 | 67 | 11 | 3.5 | 6.1 | 0.00 | 0.26 | 0.26 | 77 | 1023.1 |
| 20260831021105 | 67 | 319 | 2.6 | 5.2 | 0.00 | 0.26 | 0.26 | 79 | 1023.2 |
| 20260831020506 | 67 | 323 | 2.6 | 7.8 | 0.00 | 0.26 | 0.26 | 78 | 1022.8 |
| 20260831015553 | 67 | 326 | 0.0 | 3.5 | 0.00 | 0.26 | 0.26 | 80 | 1022.4 |
| 20260831015045 | 67 | 134 | 0.0 | 4.3 | 0.02 | 0.26 | 0.26 | 76 | 1022.2 |
| 20260831014554 | 67 | 128 | 0.9 | 5.2 | 0.03 | 0.26 | 0.26 | 74 | 1021.9 |
| 20260831014102 | 67 | 161 | 2.6 | 5.2 | 0.03 | 0.26 | 0.26 | 75 | 1021.7 |
| 20260831013505 | 66 | 355 | 0.0 | 1.7 | 0.03 | 0.26 | 0.26 | 73 | 1021.6 |
| 20260831013109 | 66 | 355 | 0.0 | 1.7 | 0.03 | 0.26 | 0.26 | 77 | 1021.7 |
| 20260831012506 | 66 | 355 | 0.0 | 3.5 | 0.03 | 0.26 | 0.26 | 79 | 1021.6 |
| 20260831012103 | 66 | 355 | 0.0 | 3.5 | 0.03 | 0.26 | 0.26 | 79 | 1021.6 |
| 20260831011507 | 66 | 355 | 1.7 | 5.2 | 0.03 | 0.26 | 0.26 | 79 | 1021.5 |
| 20260831011101 | 66 | 360 | 1.7 | 7.0 | 0.03 | 0.26 | 0.26 | 81 | 1021.5 |
| 20260831010557 | 66 | 313 | 2.6 | 13.9 | 0.03 | 0.26 | 0.26 | 79 | 1021.7 |
| 20260831010044 | 66 | 302 | 6.1 | 13.9 | 0.03 | 0.26 | 0.26 | 76 | 1021.7 |
| 20260831005552 | 67 | 302 | 7.8 | 13.9 | 0.03 | 0.26 | 0.26 | 74 | 1021.9 |
| 20260831005100 | 68 | 281 | 3.5 | 11.3 | 0.01 | 0.24 | 0.24 | 78 | 1022.1 |
| 20260831004503 | 67 | 297 | 6.1 | 11.3 | 0.00 | 0.23 | 0.23 | 80 | 1022.1 |
| 20260831004058 | 67 | 319 | 0.9 | 2.6 | 0.00 | 0.23 | 0.23 | 78 | 1021.7 |
| 20260831003501 | 67 | 14 | 0.9 | 4.3 | 0.00 | 0.23 | 0.23 | 79 | 1021.5 |
| 20260831003057 | 67 | 360 | 1.7 | 5.2 | 0.04 | 0.23 | 0.23 | 79 | 1021.5 |
| 20260831002546 | 66 | 24 | 2.6 | 5.2 | 0.14 | 0.23 | 0.23 | 76 | 1021.5 |
| 20260831002054 | 66 | 59 | 2.6 | 5.2 | 0.20 | 0.23 | 0.23 | 79 | 1021.6 |
| 20260831001546 | 66 | 22 | 2.6 | 6.1 | 0.23 | 0.23 | 0.23 | 81 | 1021.6 |
| 20260831001042 | 66 | 26 | 3.5 | 7.0 | 0.23 | 0.23 | 0.23 | 81 | 1021.7 |
| 20260831000547 | 65 | 43 | 2.6 | 7.0 | 0.23 | 0.23 | 0.23 | 82 | 1021.7 |
| 20260831000040 | 65 | 9 | 3.5 | 8.7 | 0.23 | 0.23 | 0.23 | 80 | 1021.7 |
| 20260830235551 | 65 | 21 | 4.3 | 8.7 | 0.23 | 0.23 | 0.23 | 77 | 1021.8 |
| 20260830235057 | 65 | 30 | 5.2 | 9.6 | 0.23 | 0.23 | 0.23 | 80 | 1021.9 |
| 20260830234601 | 65 | 15 | 3.5 | 10.4 | 0.23 | 0.23 | 0.23 | 81 | 1021.9 |
| 20260830234054 | 64 | 355 | 6.1 | 12.2 | 0.23 | 0.23 | 0.23 | 82 | 1022.0 |
| 20260830233601 | 65 | 5 | 9.6 | 14.8 | 0.23 | 0.23 | 0.23 | 79 | 1022.2 |
| 20260830233004 | 66 | 321 | 11.3 | 22.6 | 0.17 | 0.17 | 0.17 | 76 | 1022.7 |
| 20260830232605 | 68 | 319 | 13.0 | 32.2 | 0.09 | 0.09 | 0.09 | 69 | 1022.6 |
| 20260830232005 | 78 | 311 | 20.9 | 29.5 | 0.01 | 0.01 | 0.01 | 47 | 1021.8 |
| 20260830231604 | 84 | 275 | 3.5 | 6.1 | 0.00 | 0.00 | 0.00 | 32 | 1021.8 |
| 20260830231051 | 84 | 229 | 0.9 | 5.2 | 0.00 | 0.00 | 0.00 | 31 | 1021.6 |
| 20260830230600 | 84 | 167 | 2.6 | 6.1 | 0.00 | 0.00 | 0.00 | 31 | 1021.5 |
| 20260830230051 | 85 | 133 | 1.7 | 5.2 | 0.00 | 0.00 | 0.00 | 31 | 1021.3 |
| 20260830225541 | 85 | 182 | 2.6 | 5.2 | 0.00 | 0.00 | 0.00 | 30 | 1021.4 |
| 20260830225049 | 85 | 171 | 0.9 | 7.8 | 0.00 | 0.00 | 0.00 | 30 | 1021.5 |
| 20260830224550 | 86 | 156 | 4.3 | 9.6 | 0.00 | 0.00 | 0.00 | 30 | 1021.5 |
| 20260830224050 | 86 | 148 | 2.6 | 9.6 | 0.00 | 0.00 | 0.00 | 30 | 1021.6 |
| 20260830223559 | 86 | 159 | 3.5 | 8.7 | 0.00 | 0.00 | 0.00 | 30 | 1021.6 |
| 20260830223109 | 86 | 196 | 4.3 | 8.7 | 0.00 | 0.00 | 0.00 | 30 | 1021.7 |
| 20260830222556 | 86 | 178 | 4.3 | 10.4 | 0.00 | 0.00 | 0.00 | 29 | 1021.7 |
| 20260830222106 | 87 | 157 | 5.2 | 12.2 | 0.00 | 0.00 | 0.00 | 29 | 1021.7 |
| 20260830221607 | 88 | 169 | 7.0 | 12.2 | 0.00 | 0.00 | 0.00 | 28 | 1021.8 |
| 20260830221105 | 89 | 170 | 3.5 | 12.2 | 0.00 | 0.00 | 0.00 | 28 | 1021.8 |
| 20260830220507 | 88 | 244 | 0.9 | 7.0 | 0.00 | 0.00 | 0.00 | 28 | 1021.9 |
| 20260830220004 | 88 | 287 | 3.5 | 10.4 | 0.00 | 0.00 | 0.00 | 27 | 1021.9 |
| 20260830215602 | 88 | 134 | 4.3 | 10.4 | 0.00 | 0.00 | 0.00 | 28 | 1022.0 |
| 20260830215106 | 88 | 244 | 5.2 | 13.0 | 0.00 | 0.00 | 0.00 | 28 | 1022.0 |
| 20260830214508 | 88 | 225 | 7.0 | 13.0 | 0.00 | 0.00 | 0.00 | 28 | 1022.0 |
| 20260830214101 | 88 | 186 | 7.0 | 11.3 | 0.00 | 0.00 | 0.00 | 29 | 1022.2 |
| 20260830213504 | 87 | 138 | 6.1 | 11.3 | 0.00 | 0.00 | 0.00 | 30 | 1022.4 |
| 20260830213106 | 87 | 115 | 5.2 | 11.3 | 0.00 | 0.00 | 0.00 | 30 | 1022.5 |
| 20260830212558 | 87 | 136 | 7.0 | 12.2 | 0.00 | 0.00 | 0.00 | 30 | 1022.5 |
| 20260830212041 | 88 | 175 | 6.1 | 10.4 | 0.00 | 0.00 | 0.00 | 30 | 1022.5 |
| 20260830211555 | 87 | 123 | 5.2 | 10.4 | 0.00 | 0.00 | 0.00 | 31 | 1022.6 |
| 20260830211056 | 87 | 159 | 5.2 | 7.8 | 0.00 | 0.00 | 0.00 | 31 | 1022.6 |
| 20260830210607 | 87 | 137 | 2.6 | 9.6 | 0.00 | 0.00 | 0.00 | 31 | 1022.6 |
| 20260830210104 | 87 | 112 | 3.5 | 10.4 | 0.00 | 0.00 | 0.00 | 30 | 1022.9 |
| 20260830205504 | 87 | 174 | 7.0 | 11.3 | 0.00 | 0.00 | 0.00 | 31 | 1022.9 |
| 20260830205059 | 87 | 184 | 2.6 | 9.6 | 0.00 | 0.00 | 0.00 | 32 | 1022.9 |
| 20260830204547 | 87 | 155 | 5.2 | 9.6 | 0.00 | 0.00 | 0.00 | 32 | 1023.1 |
| 20260830204056 | 87 | 169 | 6.1 | 9.6 | 0.00 | 0.00 | 0.00 | 32 | 1023.2 |
| 20260830203548 | 86 | 157 | 2.6 | 9.6 | 0.00 | 0.00 | 0.00 | 32 | 1023.4 |
| 20260830203056 | 86 | 167 | 1.7 | 13.0 | 0.00 | 0.00 | 0.00 | 33 | 1023.5 |
| 20260830202603 | 85 | 178 | 3.5 | 13.0 | 0.00 | 0.00 | 0.00 | 33 | 1023.6 |
| 20260830202007 | 84 | 136 | 1.7 | 8.7 | 0.00 | 0.00 | 0.00 | 34 | 1023.7 |
| 20260830201523 | 84 | 131 | 3.5 | 8.7 | 0.00 | 0.00 | 0.00 | 35 | 1023.8 |
| 20260830201019 | 83 | 180 | 2.6 | 8.7 | 0.00 | 0.00 | 0.00 | 35 | 1023.8 |